Location: Unspecified
(0.0000°N, 0.0000°E)
Time: 23:52:31
(UTC+00:00)

Vanguard 1 - Pass Details

Date: 01 October 2020
Orbit: 649 x 3833 km, 34.3° (Epoch: 28 October)

Event Time Altitude Azimuth Distance (km) Brightness Sun altitude
Rises 04:10:49 0° 314° (NW) 3,428 - -24.7°
Reaches altitude 10° 04:12:53 10° 317° (NW) 2,691 - -24.1°
Exits shadow 04:15:16 28° 324° (NW) 1,940 11.2 -23.5°
Maximum altitude 04:19:16 67° 40° (NE) 1,458 10.9 -22.5°
Drops below altitude 10° 04:31:11 10° 120° (ESE) 4,823 14.5 -19.6°
Sets 04:36:10 0° 122° (ESE) 6,357 15.3 -18.3°
